CRRES DEB (CANISTER)

基本信息
目录编号:
27051
目录名称:
CRRES DEB (CANISTER)
国际标识:
1990-065U
轨道中心:
EARTH
物体状态:
在轨
发射日期:
1990-07-25 UTC
轨道信息
数据来源: 国际轨道数据
星历时间: 2026-07-10T15:06:58+0800
半长轴: 21102.433km
偏心率: 0.6822461
轨道倾角: 18.273°
近地点辐角: 6.473°
升交点赤经: 27.170°
平近点角: 359.192°
近地点: 327.243km
远地点: 29121.349km
周期: 508.462分钟
每日圈数: 2.83207
详细信息
发射场:
AFETR
轨道高度:
LEO
数据来源:
AOE Integration Group
参考系:
TEME
时间系统:
UTC
历元类型:
SGP4
2D轨道图
3D轨道图
轨道高度分析图
轨道倾角分析图
轨道综合分析图
查看轨道综合分析图